Find Starlink 3852

NORAD ID: 52345 Int'l Des: 2022-045 Owner: SPXS Country: US Constellation: starlink operational
LEOCIRCULAR

实时位置

正在加载3D地球...

关于 Starlink 3852

正在加载描述...

即将过境

Passes for default location (London). Set your location on the main map for personalized predictions.

高度历史

Loading altitude history...

两行轨道根数

1 52345U 22045Q 26118.88515691 .00000169 00000-0 28742-4 0 9996
2 52345 53.2177 333.9496 0001784 92.8068 267.3129 15.08836962223348
Epoch: Apr 28, 2026 • Age: 13 hours

当前状态

高度 539.8 km
速度 7.60 km/s
星下点 22.77°N, 116.43°E
发射日期 Apr 29, 2022
运行时间 3.9 years
类型 internet

技术详情

分类 Payload
质量 297.00 kg
干质量 275.00 kg
总质量 297.00 kg
长度 0.20 m
直径 2.80 m
跨度 9.00 m
形状 Box + pan
制造商 SPXS
平台类型 Starlink
阶段状态 In Orbit
所有者/国家 SPXS/US

Most Searched